Powrót do katalogu

DELTA 1 DEB

AktywnyLEO
NORAD 10752·DEBRIS·🇺🇸 United States

Wystrzelony Jul 29, 1976 z Vandenberg Space Force Base

Loading…

Następne Przeloty (najbliższe 24 godziny)

TLE

ŚwieżeSource: Space-Track

Epoka: Sep 14, 2026, 05:57 UTC

1 10752U 76077AZ  26257.24860009 -.00002000  00000-0 -65758-2 0  9990
2 10752 101.7372 164.3072 0314753 164.9316 346.6735 12.83856024314779

Śledź DELTA 1 DEB w czasie rzeczywistym z AllMySat

Download on the App Store